OpenBCM V1.13 (Linux)

Packet Radio Mailbox

DB0FHN

[JN59NK Nuernberg]

 Login: GUEST





  
I0OJJ  > KEPS     15.02.26 06:33l 310 Lines 14722 Bytes #999 (0) @ AMSAT
BID : ORB26046.1
Read: OE5RCO DJ6UX GUEST
Subj: 2Line Orbital Elements 26046.AMSAT
Path: DB0FHN<DB0RKB<DK0WUE<PD0LPM<IR0AAB<I0OJJ
Sent: 260215/0021z @:I0OJJ.ITA.EU [Rome] obcm1.13-38-g65b7
From: I0OJJ @ I0OJJ.ITA.EU (Gustavo)
To:   KEPS @ AMSAT
X-Info: This message was generated automatically


QST de W1STR

AMSAT Orbital Elements for Amateur Satellites in TLE Format
From Orbital Analysis Office
New England Sci-Tech STEM Education Center
Natick MA February 15, 2026
To all radio amateurs


These element sets describe the orbits of various satellites 
in use by the amateur radio community. For details see:
www.amsat.org/keplerian-elements-formats/

A daily update of element sets is available at:
www.amsat.org/tle/daily-bulletin.txt
or without bulletin text:
www.amsat.org/tle/dailytle.txt


AO-07
1 07530U 74089B   26045.66725229 -.00000022  00000-0  15482-3 0  9997
2 07530 101.9972  57.6096 0012235   6.4305 117.8651 12.53695876345160
UO-11
1 14781U 84021B   26045.51210612  .00001917  00000-0  20241-3 0  9991
2 14781  97.7904  12.5960 0006389 221.6270 138.4462 14.90418462238851
AO-27
1 22825U 93061C   26045.63163127  .00000123  00000-0  63875-4 0  9993
2 22825  98.7032 113.0183 0009520  99.6879 260.5379 14.30905086689473
FO-29
1 24278U 96046B   26045.57985881  .00000022  00000-0  55933-4 0  9999
2 24278  98.5414 271.1218 0350695  54.6524 308.6867 13.53267047456586
GO-32
1 25397U 98043D   26045.55946645  .00000097  00000-0  61899-4 0  9994
2 25397  98.9997  35.2708 0001161 157.8032 202.3197 14.24399402433876
ISS
1 25544U 98067A   26045.53711076  .00007669  00000-0  14907-3 0  9999
2 25544  51.6315 186.8042 0011057  98.0666 262.1577 15.48597515552744
NO-44
1 26931U 01043C   26045.64825851  .00000200  00000-0  10565-3 0  9997
2 26931  67.0496 201.2004 0007012 266.0373  93.9927 14.31898714272906
SO-50
1 27607U 02058C   26045.61813354  .00001719  00000-0  22089-3 0  9997
2 27607  64.5522 148.1209 0074605 284.8444  74.4407 14.82688947246284
CO-55
1 27844U 03031E   26045.59142117  .00000370  00000-0  17925-3 0  9996
2 27844  98.6775  55.6780 0009634 175.1537 184.9737 14.24246177174224
CO-57
1 27848U 03031J   26045.51886940  .00000336  00000-0  16679-3 0  9998
2 27848  98.6805  55.4178 0009176 193.5297 166.5636 14.23544426173926
RS-22
1 27939U 03042A   26045.84154787  .00001624  00000-0  25988-3 0  9998
2 27939  98.3408 226.7701 0010372 300.2084 171.5147 14.73187281197532
CO-58
1 28895U 05043F   26045.40438690  .00002167  00000-0  35148-3 0  9995
2 28895  98.2784 198.5964 0013428 232.4157 127.5831 14.72212177 83682
CO-65
1 32785U 08021C   26045.62501778  .00006470  00000-0  42396-3 0  9993
2 32785  97.8158  24.6965 0011038  86.0904 274.1586 15.08018217966712
CO-66
1 32791U 08021J   26045.55038432  .00015925  00000-0  58453-3 0  9990
2 32791  97.7491  38.0428 0004768  53.6506 306.5172 15.28030487968539
RS-30
1 32953U 08025A   26045.85194949  .00000075  00000-0  46536-3 0  9992
2 32953  82.4991  71.5385 0018749 215.6139 144.3691 12.43175139804491
SRMSAT
1 37841U 11058D   26045.44484602  .00000446  00000-0  98095-4 0  9996
2 37841  19.9720  82.3883 0011537 294.2655 197.6078 14.11538820740456
ZACUBE-1
1 39417U 13066B   26045.45181152  .00006563  00000-0  52293-3 0  9998
2 39417  97.8182   7.1636 0040502 300.1280  59.5931 15.00049705662321
Delfi-N3xt
1 39428U 13066N   26045.63241346  .00006972  00000-0  63544-3 0  9997
2 39428  97.8347 326.2218 0075412 254.1236 105.1662 14.93278554656323
GOMX-1
1 39430U 13066Q   26045.80285562  .00002082  00000-0  31906-3 0  9992
2 39430  97.6583 253.9334 0130757 110.2581 251.2738 14.68999865651947
LO-74
1 39440U 13066AA  26045.43842625  .00004946  00000-0  46875-3 0  9993
2 39440  97.8775 354.0865 0060570  74.5396 286.2502 14.92660316658673
AO-73
1 39444U 13066AE  26045.47812672  .00009138  00000-0  59829-3 0  9991
2 39444  97.8135  14.6377 0035704 260.7323  98.9866 15.07447463661166
DTUSAT-2
1 40030U 14033W   26045.51648754  .00010054  00000-0  57183-3 0  9992
2 40030  98.0817  35.6619 0006523 301.4431  58.6160 15.13074094634120
EO-80
1 40032U 14033Y   26045.45634242  .00009803  00000-0  55569-3 0  9990
2 40032  98.0699  34.9062 0006094 223.7784 136.2963 15.13201631634093
LILACSAT-2
1 40908U 15049K   26045.81909427  .00015775  00000-0  31236-3 0  9990
2 40908  97.4847  78.2616 0006932 351.2102   8.9025 15.47140006576804
Horyu-4
1 41340U 16012D   26045.57312779  .00057376  00000-0  70619-3 0  9994
2 41340  30.9897 229.1864 0000610 156.6492 203.4187 15.58920103551495
Lapan A3
1 41603U 16040E   26045.84169377  .00003916  00000-0  12820-3 0  9992
2 41603  97.1461  46.1070 0012538  93.8305 266.4371 15.32167909536072
CAS-2T
1 41847U 16066G   26045.63924574  .00001733  00000-0  25063-3 0  9993
2 41847  98.3936 122.7396 0343699 141.1719 221.4715 14.44387475487101
TechnoSat
1 42829U 17042E   26045.41087093  .00004504  00000-0  32853-3 0  9995
2 42829  97.4083 207.9212 0018434 150.4946 209.7325 15.04050434468248
AO-91
1 43017U 17073E   26045.60984918  .00007784  00000-0  35522-3 0  9991
2 43017  97.4904 275.3971 0158101  31.6351 329.4263 15.10331284446875
S-Net D
1 43186U 18014G   26045.63052032  .00005466  00000-0  29340-3 0  9996
2 43186  97.5466 311.2391 0010338  83.5610 276.6799 15.15304193440195
S-Net B
1 43187U 18014H   26045.63966132  .00005072  00000-0  27268-3 0  9992
2 43187  97.5471 311.2311 0011041  79.7072 280.5404 15.15277155440199
S-Net A
1 43188U 18014J   26045.62996674  .00005513  00000-0  29581-3 0  9996
2 43188  97.5481 311.4080 0010877  80.2495 279.9965 15.15310102440192
S-Net C
1 43189U 18014K   26045.64289598  .00005106  00000-0  27450-3 0  9990
2 43189  97.5497 311.4764 0012291  74.0952 286.1634 15.15269758438741
Ten-Koh
1 43677U 18084G   26045.46426298  .00004124  00000-0  31694-3 0  9993
2 43677  98.0755 232.6805 0009723 168.7117 191.4327 15.02292399397739
PO-101
1 43678U 18084H   26045.83985999  .00002361  00000-0  19574-3 0  9997
2 43678  98.1052 236.9379 0009490 197.4488 162.6409 14.99843815397871
QO-100
1 43700U 18090A   26045.61842664  .00000150  00000-0  00000+0 0  9991
2 43700   0.0127 103.6699 0002594 268.3174  21.0592  1.00274831 26442
MinXSS-2
1 43758U 18099A   26045.64179266  .00023696  00000-0  61938-3 0  9998
2 43758  97.4688 119.0260 0008119 353.4094   6.7043 15.38735144395230
AO-95
1 43770U 18099N   26045.59804273  .00010256  00000-0  42854-3 0  9993
2 43770  97.4572 106.4542 0010317  64.8965 295.3341 15.23766496394539
SNUSat 2
1 43782U 18099AA  26045.62458538  .00008540  00000-0  40241-3 0  9990
2 43782  97.4255 100.9647 0010792  13.3735 346.7783 15.19700259394403
SnugLite
1 43784U 18099AC  26045.63407689  .00010852  00000-0  44829-3 0  9999
2 43784  97.4064 101.2688 0003168  29.8807 330.2611 15.24178156394637
ITASat 1
1 43786U 18099AE  26045.62917002  .00007304  00000-0  36903-3 0  9997
2 43786  97.4223  99.6262 0014313  63.8346 296.4358 15.17276902394310
EAGLET 1
1 43790U 18099AJ  26045.58982707  .00003814  00000-0  22630-3 0  9995
2 43790  97.4422  98.4835 0012626  54.7460 305.4950 15.11866686393800
ESEO
1 43792U 18099AL  26045.63330675  .00001624  00000-0  12216-3 0  9990
2 43792  97.4158  88.1945 0013335  39.8692 320.3512 15.03816233393382
JO-97
1 43803U 18099AX  26045.59686137  .00014459  00000-0  50926-3 0  9995
2 43803  97.4314 108.2834 0005706 358.3180   1.8040 15.29394073394866
Suomi 100
1 43804U 18099AY  26045.59558279  .00011078  00000-0  44187-3 0  9997
2 43804  97.4376 106.6103 0010190   1.1062 359.0196 15.25310213394715
ISAT
1 43879U 18111D   26045.54102809  .00039205  00000-0  74212-3 0  9997
2 43879  97.5906 333.0861 0007954  51.0040 309.1917 15.48246794392091
UWE-4
1 43880U 18111E   26045.33496144  .00031944  00000-0  84232-3 0  9999
2 43880  97.5859 328.8064 0011466  55.5099 304.7226 15.38370881391843
Sparrow
1 43881U 18111F   26045.35097564  .00064984  00000-0  10959-2 0  9999
2 43881  97.6108 337.0765 0007986  78.7793 281.4356 15.51414873392203
Prox-1
1 44339U 19036A   26045.49231490  .00015896  00000-0  16888-2 0  9993
2 44339  23.9924 211.8516 0007515  58.1118 302.0111 14.87285348355168
Taurus 1
1 44530U 19059C   26045.83274219  .00009287  00000-0  15410-2 0  9992
2 44530  98.6261 203.2975 0008145 333.5175  26.5612 14.70409890340655
TO-108
1 44881U 19093C   26045.86353205  .00000193  00000-0  27914-4 0  9996
2 44881  97.7661 121.0375 0014679 125.7196 234.5388 14.86284411333247
FloripaSat 1
1 44885U 19093G   26045.80778767  .00006340  00000-0  48333-3 0  9995
2 44885  97.7903 139.2984 0012000 123.2492 236.9884 15.02336997334261
RS-44
1 44909U 19096E   26045.49721765  .00000042  00000-0  11824-3 0  9994
2 44909  82.5171  61.2329 0218626  71.3594 291.1108 12.79747058286658
SALSAT
1 46495U 20068K   26045.55510705  .00008448  00000-0  31469-3 0  9999
2 46495  97.8833  41.3551 0010917  23.3934 336.7799 15.27686138296625
CSS (TIANHE-1)
1 48274U 21035A   26045.54273357  .00017551  00000-0  21777-3 0  9995
2 48274  41.4682 348.8930 0004119  92.6831 267.4479 15.59606555273997
CUTE
1 49263U 21088D   26045.54170951  .00032510  00000-0  33713-3 0  9993
2 49263  97.4264 136.4885 0004120  44.4596 315.6993 15.64605768243252
TeikyoSat 4
1 49396U 21102B   26045.53367484  .00001686  00000-0  11037-3 0  9990
2 49396  97.3830  79.7282 0012154   3.8710 356.2611 15.09000959234225
Z-Sat
1 49399U 21102E   26045.83438322  .00004708  00000-0  23963-3 0  9995
2 49399  97.3505  84.8537 0015880 318.7181  41.2851 15.17181461234882
KOSEN 1
1 49402U 21102H   26045.64516245  .00007125  00000-0  28869-3 0  9996
2 49402  97.3384  90.2293 0012568 281.7211  78.2616 15.24889197235334
HO-113
1 50466U 21131B   26045.87143344  .00000469  00000-0  15893-3 0  9998
2 50466  98.4983 138.9562 0005256 104.0093 256.1680 14.41219249217491
SNUGLITE 2
1 52899U 22065F   26045.64032494  .00001290  00000-0  25497-3 0  9999
2 52899  98.1987 190.8431 0008320  54.7278 305.4702 14.64062962193069
